Location: RyutenAO
(34.8939°N, 134.0022°E)
Time: 10:02:40
(UTC+09:00)

Oscar 19 - Pass Details

Date: 02 April 2023
Orbit: 773 x 788 km, 98.8° (Epoch: 29 May)

Event Time Altitude Azimuth Distance (km) Brightness Sun altitude
Rises 03:02:02 0° 32° (NNE) 3,268 14.8 -33.1°
Reaches altitude 10° 03:05:03 10° 50° (NE) 2,338 13.9 -32.6°
Maximum altitude 03:08:37 19° 95° (E) 1,803 13.0 -32.0°
Drops below altitude 10° 03:12:11 10° 139° (SE) 2,334 13.2 -31.4°
Enters shadow 03:12:15 10° 139° (SE) 2,353 13.2 -31.4°
